Wind_Speed
41 39 38 37 37 38 37 36 37 39 41 44 47 50 52 55 58 62 66 69 72 76 79 83 88 93 98 103 108 113 118 122 126 131 134 138 143 147 151 154 157 159 162 165 167 168 168 168 169 169 168 167 166 166 166 165 165 164 164 164 165 167 168
42 40 39 38 37 37 37 37 36 37 39 41 44 47 50 52 55 58 62 65 69 72 75 79 83 87 92 97 102 107 112 117 121 126 130 134 138 142 146 150 153 155 158 161 164 167 168 169 169 169 169 168 167 167 166 166 165 165 164 164 164 165 166
43 41 39 38 37 37 37 37 37 37 37 39 41 44 47 50 52 55 58 62 65 69 72 75 78 82 86 91 96 101 106 112 117 121 125 129 133 137 141 145 148 151 153 156 160 163 165 168 169 169 169 169 168 168 167 166 165 165 165 165 165 164 165
44 42 40 39 37 36 36 37 37 37 37 37 39 42 45 47 50 52 55 58 62 65 68 71 74 77 80 85 91 96 100 105 111 116 120 124 128 132 136 140 143 146 149 152 155 159 162 164 166 168 168 169 169 169 168 168 166 166 166 165 165 165 165
44 43 41 40 38 36 36 36 37 37 37 37 37 39 42 44 47 50 52 55 58 62 65 68 71 73 76 80 85 90 95 99 103 109 114 119 123 127 131 134 138 141 145 148 151 154 158 161 164 165 167 168 168 169 169 169 168 167 166 166 165 165 165
43 43 42 41 40 38 35 36 36 36 37 37 37 38 40 42 44 47 50 53 55 58 61 65 68 70 73 76 80 84 89 93 97 102 107 113 118 123 126 130 133 137 140 144 147 150 154 158 161 163 164 166 167 167 168 169 169 169 168 167 166 165 166
42 42 42 42 41 39 37 35 36 36 36 37 36 36 38 40 42 44 47 50 53 55 58 61 64 67 70 73 76 79 83 88 92 96 101 106 111 116 121 125 128 131 134 138 142 146 150 153 156 159 161 163 165 165 165 166 167 168 168 168 167 166 166
42 41 41 41 42 41 38 36 35 36 36 36 37 36 36 38 41 42 44 47 50 53 55 58 61 64 67 70 72 75 79 83 86 90 95 99 103 107 112 117 122 126 129 132 135 140 144 148 151 154 157 159 161 162 163 163 164 165 166 167 168 167 167
43 41 40 40 41 41 40 37 36 36 35 35 37 37 35 36 38 41 43 44 47 50 53 55 58 60 63 66 69 72 75 78 82 85 89 93 97 101 105 109 113 118 123 127 130 133 137 141 145 148 152 155 157 158 159 160 162 163 164 166 167 167 167
44 41 39 39 39 40 40 38 36 36 36 35 35 37 37 35 35 38 41 43 45 47 50 53 55 58 60 63 65 68 71 74 78 81 84 88 91 95 99 103 106 110 114 119 123 127 131 134 138 142 146 150 152 154 154 156 158 158 159 162 164 165 166
44 42 40 38 38 39 40 39 37 36 37 36 34 34 36 36 35 35 38 41 43 45 47 50 53 56 58 60 62 64 67 71 74 77 80 82 85 89 93 96 100 104 107 110 114 118 122 127 131 136 140 144 147 149 150 150 151 152 152 155 158 161 162
45 43 41 39 38 38 38 38 37 36 37 37 35 33 34 36 36 35 35 38 41 43 45 47 50 53 55 57 59 61 64 66 69 72 75 78 80 83 86 90 93 97 100 103 106 109 113 117 123 128 133 137 140 143 145 145 145 145 146 148 151 153 155
45 44 41 39 37 38 38 38 37 36 37 37 36 34 33 34 36 37 35 35 38 41 43 45 47 50 53 55 57 59 61 63 66 68 71 74 76 79 81 84 87 90 93 96 99 103 106 110 114 119 124 128 132 136 138 140 140 141 141 142 144 146 148
45 44 42 40 37 37 38 37 36 36 37 37 36 34 33 33 35 37 37 35 36 38 41 43 44 47 49 52 54 55 57 59 62 65 68 70 73 75 77 79 82 85 87 89 92 96 101 104 107 111 115 119 123 127 130 133 135 136 137 138 140 140 142
45 45 43 41 38 36 37 37 36 36 37 38 37 35 33 32 33 35 36 36 36 36 38 40 42 44 46 49 51 52 54 56 58 61 64 67 69 71 73 75 78 80 82 84 87 91 95 98 102 105 109 111 114 118 122 126 129 130 132 134 135 136 138
45 45 44 41 39 36 36 36 36 35 36 37 38 37 34 31 32 34 35 36 36 36 36 38 40 41 43 45 47 49 51 53 55 57 60 63 65 67 69 72 74 75 77 80 83 87 90 92 95 99 103 106 108 112 115 118 121 123 126 128 131 132 134
44 45 44 42 39 37 35 36 35 34 34 36 37 38 36 33 32 32 34 35 36 37 36 37 38 39 40 42 45 47 49 50 52 54 56 58 60 63 66 68 69 70 73 76 79 82 86 88 90 93 96 100 103 106 109 111 113 116 119 122 125 128 130
44 44 44 42 40 37 35 35 35 34 33 34 36 37 37 35 33 32 33 34 35 36 36 37 37 38 38 40 42 45 47 48 49 51 52 53 56 59 62 63 64 67 70 73 75 78 81 83 85 87 91 94 97 100 103 106 108 111 113 115 118 121 125
43 44 44 42 41 38 35 34 34 34 33 33 34 36 37 36 34 33 33 33 34 35 35 36 37 37 38 38 40 43 45 46 47 48 48 50 53 55 58 59 61 64 67 69 72 75 77 79 81 83 86 89 92 94 97 101 104 107 108 109 111 114 118
43 44 44 43 41 39 36 34 34 34 33 32 33 34 35 36 35 34 33 33 34 34 34 35 36 37 37 38 38 40 42 44 46 46 46 47 50 52 53 56 59 61 63 65 68 71 73 76 77 79 82 85 87 89 92 95 99 101 102 104 106 108 111
43 43 44 44 42 39 37 35 33 33 33 32 32 33 34 35 35 34 33 33 34 34 33 34 35 36 37 37 38 39 40 41 43 45 45 45 47 48 50 53 56 58 60 62 65 67 69 72 74 76 78 81 83 85 88 90 93 94 96 98 101 103 105
43 42 43 44 43 40 38 36 34 32 32 32 32 32 33 34 34 34 33 33 34 34 34 33 33 34 35 36 37 38 39 40 41 43 43 44 45 47 48 51 53 54 57 60 62 63 66 68 70 72 74 77 79 81 83 85 87 89 90 92 95 97 100
42 42 42 43 42 41 39 37 35 33 32 31 31 31 32 33 33 33 33 33 33 34 34 33 33 33 34 35 36 38 38 39 39 41 42 43 44 45 47 48 50 52 54 57 59 61 63 65 67 69 71 73 75 76 78 80 82 84 85 87 90 92 94
42 41 41 41 42 41 39 37 36 34 32 31 31 31 31 32 32 33 33 33 33 34 34 33 33 33 33 33 34 36 37 38 38 39 40 41 42 44 45 46 48 49 52 55 57 59 60 62 63 65 67 69 71 72 73 75 78 80 82 85 87 89 91
42 41 41 40 41 40 39 37 36 34 32 31 31 31 31 31 31 32 32 32 32 33 33 33 33 32 32 32 32 34 36 37 38 38 39 40 41 43 44 45 46 48 50 52 54 55 57 58 59 61 63 65 67 68 70 73 76 78 80 82 85 87 89
42 41 40 40 40 40 39 37 36 34 33 31 30 30 30 30 30 31 31 32 32 32 32 33 33 32 32 31 32 32 34 35 37 37 37 38 40 41 42 44 45 46 48 50 52 53 54 55 55 57 59 61 63 66 69 71 73 75 76 78 80 83 85
42 41 40 39 39 39 39 38 36 34 33 31 30 30 30 30 30 30 30 30 31 31 31 32 32 32 32 31 31 31 33 34 35 36 37 37 38 39 41 42 44 45 47 48 50 51 52 52 53 54 56 58 60 63 65 67 69 71 73 74 76 78 81
42 40 39 38 38 38 38 38 37 35 33 31 30 29 29 29 30 29 29 29 29 30 31 31 31 31 31 31 30 30 31 33 34 35 35 36 37 38 39 40 42 44 45 47 48 49 50 50 51 52 53 55 57 59 61 63 65 67 69 71 73 75 77
42 40 39 38 38 37 37 37 37 36 34 32 31 30 28 28 28 29 28 28 28 29 30 31 31 31 31 31 30 29 30 31 33 34 34 35 35 36 37 39 40 42 43 45 46 47 48 49 50 50 51 52 55 57 58 60 62 64 66 68 70 72 74
42 41 39 38 37 37 36 36 36 36 35 33 32 31 30 28 27 27 27 27 27 27 28 29 30 30 30 30 30 30 29 30 31 32 33 34 34 35 36 37 38 40 41 43 44 45 46 47 48 48 49 50 52 54 55 57 60 62 63 64 67 69 71
41 41 39 38 37 37 37 36 35 35 34 34 33 32 31 30 29 27 27 27 26 26 26 28 29 29 29 29 30 30 30 29 30 31 32 33 33 34 34 36 37 38 39 41 42 44 45 46 47 47 47 48 50 51 52 55 57 59 60 62 64 66 68
40 40 39 38 37 36 36 36 35 34 33 33 32 32 32 31 30 29 28 28 27 26 25 26 27 28 29 29 29 29 29 29 29 29 30 31 32 33 33 34 36 37 38 39 40 41 43 44 45 46 46 47 48 49 50 52 54 56 58 60 62 64 66
40 39 38 38 38 37 36 36 36 35 33 32 31 31 31 31 31 29 28 28 28 28 26 26 26 26 27 28 29 29 29 29 28 28 29 30 31 32 33 33 34 36 37 38 39 40 41 42 43 44 45 45 46 47 48 50 52 54 55 57 59 61 63
40 39 38 37 37 37 37 36 36 35 34 33 31 31 30 30 30 30 28 26 26 27 27 26 26 26 26 27 28 29 29 29 28 28 28 28 30 31 32 33 33 34 35 37 38 39 39 40 41 42 43 44 45 46 47 48 50 51 53 55 56 58 60
41 39 38 37 36 37 37 37 36 35 34 33 32 31 30 30 29 29 28 26 25 25 26 26 26 25 25 26 27 28 29 29 28 28 28 28 29 30 31 32 33 33 34 35 36 38 38 39 40 41 41 42 43 44 45 47 48 49 51 52 54 56 57
41 39 38 37 36 36 36 36 36 35 35 34 33 32 31 30 29 29 29 28 26 24 24 24 25 25 25 25 26 27 28 28 28 28 28 28 28 29 30 31 32 33 33 34 35 36 37 38 39 40 40 41 42 43 44 45 46 47 49 51 52 54 55
Wind_Direction
313 309 304 299 294 289 284 279 273 268 264 261 258 255 253 251 250 248 247 245 243 241 239 238 236 235 234 233 233 233 232 232 233 233 233 233 233 234 235 235 235 236 236 237 237 237 237 237 237 238 238 238 238 237 237 236 236 235 235 236 237 238 239
315 311 307 302 297 292 288 283 278 273 267 264 261 258 254 252 250 249 248 246 245 243 241 239 238 236 235 234 234 233 233 232 233 233 233 233 233 233 234 235 235 235 236 237 238 238 238 238 237 237 238 238 238 238 238 237 237 236 236 236 236 237 238
316 313 309 304 300 295 290 286 282 278 272 267 263 260 257 254 251 250 248 247 246 245 243 241 239 237 236 235 235 234 233 233 232 233 233 233 233 233 234 234 235 235 235 236 237 238 238 239 238 238 237 238 238 239 239 238 238 237 237 236 236 236 237
317 314 311 306 302 297 293 288 284 280 277 271 266 263 260 256 253 250 249 248 246 245 244 243 241 239 237 236 235 235 234 233 233 233 233 233 234 234 234 234 234 235 235 236 236 238 238 239 239 239 238 238 237 238 238 239 238 238 238 237 237 236 237
317 315 312 308 304 300 295 291 286 282 278 275 271 266 262 259 255 252 250 249 247 246 245 244 243 241 239 237 236 235 235 234 234 233 233 233 233 234 234 234 234 234 235 235 236 237 238 239 239 239 239 239 238 237 237 238 238 238 238 238 237 237 237
318 316 313 310 305 301 298 294 289 285 280 277 273 270 266 261 257 255 252 250 248 247 245 244 243 242 241 238 237 236 235 235 235 234 234 234 234 234 234 234 234 234 234 235 235 236 237 238 239 239 239 239 239 238 237 237 238 238 238 238 238 238 237
319 316 314 311 307 303 300 296 292 287 283 279 275 272 269 265 260 256 254 251 250 248 247 245 243 242 242 240 238 237 236 235 235 235 235 235 235 234 234 234 234 235 235 235 235 236 236 237 238 239 239 239 240 239 238 238 237 238 238 238 238 238 238
319 317 315 312 308 304 302 299 295 290 285 282 279 274 270 267 264 259 255 253 251 250 248 246 244 243 242 241 240 239 237 236 236 235 235 235 236 236 235 235 235 235 235 235 235 236 237 237 238 239 240 240 240 240 240 239 238 237 238 238 238 238 238
319 318 316 312 309 305 302 300 297 293 288 283 281 278 273 268 265 262 258 255 252 251 250 248 246 244 243 242 241 240 239 238 237 236 235 235 235 236 236 236 236 236 236 235 235 236 236 237 238 239 240 241 241 241 241 240 239 238 237 238 238 238 238
318 318 316 314 310 306 303 301 299 296 291 286 282 280 277 272 267 264 261 257 254 252 251 250 248 246 245 243 242 241 240 239 238 237 236 236 235 235 236 236 236 236 236 236 236 236 236 237 237 239 240 240 241 242 242 241 241 240 238 238 238 238 238
318 318 317 315 311 307 304 302 300 298 294 289 284 281 279 277 272 266 262 260 256 253 252 251 250 248 246 245 244 242 241 240 240 239 238 237 236 236 236 236 236 236 237 237 237 237 237 237 237 238 239 240 241 242 243 243 242 242 241 240 239 239 238
317 317 317 316 313 309 305 302 301 299 295 292 288 284 280 279 277 272 265 261 258 255 253 251 250 249 247 246 245 244 243 242 241 240 239 238 237 237 237 236 236 237 237 237 237 237 237 237 238 238 238 239 240 241 242 243 243 243 243 242 241 240 239
317 317 317 317 315 311 306 303 301 300 297 293 290 287 283 279 278 276 271 265 260 257 255 252 251 250 249 247 245 244 244 243 242 241 240 239 238 237 237 237 236 236 236 236 237 237 237 237 238 238 239 239 240 241 242 242 243 243 243 243 242 241 240
316 316 316 316 315 312 308 305 302 301 298 295 292 289 285 282 278 277 275 271 265 260 256 254 252 251 250 248 247 245 244 243 242 241 240 240 239 238 238 237 237 237 236 236 236 236 237 237 237 238 238 239 239 240 241 241 242 242 242 243 243 242 241
316 315 315 316 316 314 310 306 304 302 299 297 294 291 287 284 280 278 277 275 271 265 259 256 254 252 251 250 248 247 245 244 243 242 241 240 239 239 239 238 238 237 237 236 236 236 236 236 236 237 238 238 239 240 240 240 241 241 241 242 242 242 242
315 314 314 315 315 314 311 307 304 303 301 298 296 293 290 286 282 279 277 276 275 271 265 259 256 254 253 252 250 248 246 245 244 242 241 241 240 239 239 239 238 238 237 237 237 237 237 236 236 237 237 238 238 239 239 240 240 240 240 240 241 241 241
314 313 313 314 314 314 312 308 305 303 302 299 297 295 293 289 285 281 278 277 276 274 271 265 260 257 255 254 253 250 248 246 245 244 243 242 241 240 239 239 239 238 237 237 237 237 237 237 236 236 237 237 238 238 239 239 240 240 239 239 239 240 241
314 312 312 313 314 314 313 309 306 304 302 300 298 296 294 292 289 285 281 278 276 275 273 270 265 260 256 255 255 254 251 248 247 246 244 243 242 241 240 239 239 239 238 237 237 237 237 237 237 237 237 238 238 238 239 239 239 239 239 239 239 239 239
314 312 311 312 313 313 313 310 307 305 303 301 299 297 295 294 292 288 284 280 277 275 274 273 269 264 259 256 254 254 254 252 249 247 245 244 242 241 241 240 239 239 238 238 237 237 237 237 237 237 237 238 238 238 239 239 239 239 239 239 239 239 239
314 312 311 311 312 312 313 311 309 306 304 302 300 297 296 294 293 291 287 283 280 277 275 273 271 268 264 259 256 254 253 253 252 250 247 245 244 243 241 240 240 239 239 238 238 238 237 237 237 237 237 238 238 238 239 239 240 240 240 239 239 239 239
314 312 311 310 311 312 312 311 309 307 305 303 301 299 296 295 293 292 290 286 282 279 276 274 272 270 267 263 260 257 254 253 252 251 249 247 246 244 243 241 240 240 240 239 239 238 238 238 238 237 237 238 238 238 239 240 240 240 240 240 240 240 240
314 312 310 310 310 311 312 311 310 308 306 304 303 301 298 296 294 293 291 288 284 281 278 275 273 271 269 266 262 259 257 255 253 252 251 249 247 246 244 243 242 241 240 240 240 239 239 239 238 238 238 238 239 239 239 240 241 241 241 241 241 241 240
314 312 310 309 309 310 311 311 310 309 307 305 304 302 300 297 296 294 292 289 286 282 279 277 274 272 270 267 264 261 258 256 254 253 252 250 248 247 246 244 243 242 241 241 240 240 239 239 239 239 239 239 239 239 239 240 241 241 241 241 241 240 240
313 311 309 308 308 309 310 310 310 309 308 307 305 303 301 298 296 295 293 291 288 285 282 279 276 274 272 269 266 262 259 257 255 254 253 251 250 248 247 246 244 243 242 242 241 241 241 240 240 240 240 240 240 240 240 240 240 240 240 240 240 239 239
313 311 309 308 307 308 309 309 309 309 308 307 306 305 303 300 298 296 294 292 290 287 283 280 277 275 273 271 268 265 261 259 256 254 253 251 251 250 248 247 246 245 244 243 243 242 242 241 241 241 241 241 241 241 240 240 239 239 239 239 239 239 239
312 310 309 308 307 307 308 309 309 309 308 308 307 307 305 302 299 297 296 294 291 288 284 281 278 275 274 273 271 268 264 261 258 256 254 251 250 249 249 248 247 246 245 245 244 244 243 242 241 241 241 241 241 241 240 240 240 240 240 240 240 240 240
311 310 308 307 307 307 307 308 308 308 308 308 308 307 306 304 301 298 297 296 293 290 286 282 279 277 274 272 271 270 268 264 260 258 256 253 251 249 248 248 248 247 247 246 246 245 245 243 242 241 241 241 241 241 241 241 242 241 241 241 241 241 240
310 309 308 307 306 306 306 307 307 308 308 307 307 307 307 305 303 300 298 296 294 291 288 284 280 277 275 273 271 271 270 268 264 260 258 256 253 250 248 247 247 247 247 247 247 246 246 244 243 241 240 240 241 241 241 241 242 242 242 241 241 241 241
309 308 307 306 305 305 305 306 307 307 308 307 307 307 307 306 304 302 299 297 295 292 289 286 282 278 275 273 272 271 270 269 267 263 260 257 256 253 251 248 247 247 247 247 247 247 246 245 244 243 241 240 241 241 241 241 241 242 241 241 241 241 241
307 307 307 305 304 304 304 305 306 307 308 308 308 308 308 307 305 303 300 298 296 294 291 288 284 280 276 273 272 271 270 269 268 266 262 259 258 256 254 252 249 248 247 247 247 247 247 246 245 244 242 241 241 241 241 241 241 242 242 241 241 241 241
306 306 305 305 304 303 304 304 305 306 307 308 309 309 309 309 308 306 302 299 298 296 293 290 286 282 278 274 271 270 269 269 268 267 265 263 260 259 257 256 254 251 248 247 247 247 247 247 246 245 244 242 242 241 241 241 241 242 242 242 242 242 242
304 304 304 304 303 303 303 303 304 305 305 307 308 309 310 310 310 309 307 303 300 298 295 292 288 284 280 275 272 270 269 269 269 268 268 266 263 261 259 258 257 255 252 250 248 247 247 247 247 246 245 244 243 242 241 241 241 242 242 242 242 242 242
303 303 303 303 303 302 302 302 303 304 305 305 307 308 309 310 310 310 309 307 304 302 299 296 292 287 283 279 275 272 270 269 269 269 269 268 266 263 260 259 258 257 255 253 251 249 247 247 247 247 246 246 244 243 243 242 242 242 242 242 243 243 243
302 302 302 302 302 302 302 302 302 303 304 305 306 307 307 308 309 310 309 308 305 303 302 300 296 292 287 282 278 274 272 270 270 269 269 269 268 265 263 260 258 258 257 256 254 252 250 248 248 247 247 246 246 245 244 244 243 243 243 243 243 243 244
301 301 301 301 301 301 301 301 302 303 303 304 305 305 306 306 307 308 308 307 304 301 301 300 298 295 291 286 281 277 274 272 270 270 269 269 268 267 265 263 260 258 257 256 255 254 253 251 250 249 248 247 246 246 245 245 245 244 244 244 244 244 244
300 300 300 300 300 300 300 300 301 302 303 303 303 304 304 304 305 305 306 306 304 302 300 300 300 298 295 291 286 280 276 273 272 270 269 269 269 268 267 265 262 260 258 257 256 254 253 252 252 251 249 248 247 246 246 246 246 246 246 245 245 245 245
Height
10031 10027 10024 10021 10018 10016 10014 10013 10012 10010 10010 10009 10009 10009 10010 10011 10012 10013 10015 10017 10020 10022 10026 10030 10034 10038 10043 10048 10054 10060 10066 10073 10079 10085 10093 10100 10105 10111 10117 10124 10130 10141 10151 10153 10155 10166 10175 10181 10188 10195 10204 10214 10223 10230 10239 10248 10257 10267 10277 10285 10292 10299 10306
10025 10022 10018 10015 10012 10009 10007 10006 10004 10003 10002 10001 10001 10001 10001 10002 10003 10004 10005 10007 10009 10011 10014 10018 10022 10026 10031 10036 10041 10046 10051 10058 10063 10069 10076 10082 10088 10094 10099 10105 10113 10124 10134 10136 10138 10145 10153 10159 10168 10177 10187 10195 10203 10211 10220 10230 10240 10249 10257 10266 10274 10281 10288
10019 10016 10012 10009 10006 10003 10000 9999 9997 9996 9995 9994 9993 9992 9993 9993 9994 9995 9996 9997 9998 10000 10003 10007 10011 10015 10020 10024 10028 10032 10036 10042 10047 10053 10060 10066 10072 10079 10084 10089 10097 10107 10116 10121 10122 10126 10132 10139 10146 10157 10169 10177 10184 10193 10200 10210 10222 10231 10238 10247 10256 10263 10271
10013 10009 10006 10003 10000 9997 9994 9992 9990 9989 9987 9986 9986 9985 9984 9985 9985 9986 9987 9988 9989 9990 9992 9995 9999 10003 10008 10011 10014 10018 10022 10027 10033 10038 10045 10050 10056 10063 10069 10075 10082 10091 10098 10103 10106 10108 10112 10118 10124 10134 10146 10155 10165 10175 10181 10189 10201 10210 10218 10228 10237 10245 10253
10008 10003 10000 9997 9994 9991 9988 9985 9983 9982 9980 9979 9978 9977 9976 9976 9976 9977 9978 9979 9980 9981 9983 9985 9988 9991 9995 9999 10002 10005 10010 10015 10020 10025 10030 10035 10040 10045 10052 10058 10065 10073 10079 10084 10089 10092 10093 10096 10103 10112 10121 10129 10140 10153 10162 10167 10177 10187 10197 10207 10218 10226 10235
10003 9998 9994 9990 9987 9985 9982 9979 9976 9975 9973 9972 9971 9970 9969 9968 9968 9968 9969 9970 9971 9972 9974 9975 9977 9980 9983 9987 9991 9994 9998 10002 10007 10012 10016 10020 10024 10029 10035 10041 10047 10055 10062 10068 10073 10075 10076 10078 10083 10091 10100 10106 10114 10128 10140 10148 10157 10166 10176 10186 10197 10207 10216
9999 9993 9989 9984 9980 9977 9976 9973 9970 9967 9966 9964 9963 9963 9961 9961 9961 9960 9960 9960 9962 9963 9964 9966 9968 9970 9972 9975 9979 9983 9986 9990 9994 9998 10002 10005 10010 10015 10021 10027 10033 10039 10046 10053 10058 10061 10061 10064 10067 10072 10079 10086 10092 10103 10117 10129 10140 10149 10158 10167 10177 10186 10195
9993 9989 9984 9979 9974 9970 9969 9967 9964 9961 9959 9957 9956 9955 9954 9953 9953 9953 9953 9952 9953 9954 9955 9957 9958 9960 9962 9964 9967 9971 9974 9978 9981 9985 9989 9992 9997 10003 10008 10014 10019 10024 10031 10038 10043 10047 10049 10051 10053 10057 10062 10067 10071 10081 10094 10107 10118 10129 10139 10146 10153 10163 10173
9987 9984 9980 9975 9969 9964 9962 9960 9957 9954 9952 9951 9949 9947 9947 9946 9945 9945 9945 9945 9945 9945 9946 9948 9949 9951 9952 9954 9957 9959 9962 9966 9969 9973 9976 9980 9984 9989 9994 9999 10003 10009 10015 10021 10027 10033 10035 10038 10042 10045 10047 10048 10052 10061 10075 10084 10090 10103 10117 10124 10130 10142 10154
9982 9978 9974 9970 9965 9960 9955 9953 9951 9948 9945 9944 9942 9940 9939 9939 9939 9938 9937 9937 9937 9937 9937 9938 9940 9941 9943 9944 9946 9949 9951 9954 9957 9960 9963 9968 9972 9975 9979 9983 9988 9993 9999 10005 10012 10017 10021 10026 10031 10032 10031 10032 10035 10042 10053 10061 10066 10079 10097 10106 10110 10121 10135
9976 9972 9968 9964 9960 9955 9950 9947 9944 9941 9938 9936 9935 9934 9932 9931 9931 9931 9930 9929 9929 9929 9929 9930 9931 9932 9933 9935 9937 9938 9941 9943 9945 9948 9951 9956 9960 9963 9967 9970 9974 9978 9984 9990 9997 10003 10008 10014 10018 10017 10016 10019 10022 10025 10033 10042 10050 10062 10079 10090 10095 10105 10119
9969 9966 9962 9959 9954 9950 9945 9941 9938 9935 9932 9929 9928 9927 9926 9924 9923 9923 9923 9922 9921 9921 9921 9922 9922 9923 9924 9926 9927 9928 9930 9933 9935 9937 9940 9944 9947 9950 9954 9957 9961 9965 9970 9976 9982 9987 9992 9998 10001 10001 10003 10007 10010 10011 10018 10027 10036 10047 10061 10071 10079 10090 10104
9963 9959 9956 9953 9949 9944 9939 9935 9932 9929 9926 9923 9921 9920 9919 9917 9915 9914 9914 9915 9914 9914 9913 9914 9914 9915 9915 9917 9918 9919 9921 9923 9924 9927 9929 9931 9934 9937 9940 9944 9948 9953 9957 9963 9968 9972 9976 9980 9983 9986 9989 9994 9997 10000 10007 10014 10022 10032 10043 10051 10058 10069 10085
9957 9953 9950 9947 9943 9939 9934 9929 9926 9923 9919 9916 9914 9913 9912 9911 9909 9907 9906 9907 9907 9906 9906 9906 9906 9906 9907 9908 9909 9910 9912 9913 9914 9916 9918 9920 9922 9925 9928 9932 9936 9940 9944 9950 9955 9958 9960 9963 9968 9971 9974 9979 9985 9989 9995 10001 10007 10016 10025 10032 10039 10050 10065
9951 9947 9944 9941 9938 9934 9929 9924 9920 9917 9913 9910 9907 9906 9906 9904 9902 9900 9899 9898 9899 9899 9898 9898 9898 9898 9899 9899 9900 9901 9902 9903 9905 9906 9907 9909 9912 9915 9918 9921 9924 9927 9933 9938 9941 9943 9945 9949 9954 9957 9959 9965 9971 9975 9979 9984 9991 10000 10009 10016 10023 10032 10043
9945 9941 9938 9935 9932 9928 9924 9919 9915 9912 9908 9904 9901 9899 9899 9898 9896 9894 9892 9891 9890 9890 9891 9890 9890 9890 9891 9891 9891 9892 9893 9894 9895 9896 9898 9900 9903 9905 9907 9909 9912 9917 9922 9925 9927 9928 9931 9936 9941 9944 9946 9952 9956 9959 9962 9968 9975 9985 9993 9999 10006 10013 10021
9940 9935 9932 9929 9926 9923 9919 9914 9910 9907 9903 9899 9895 9892 9891 9891 9889 9888 9886 9885 9883 9882 9883 9883 9882 9882 9883 9883 9883 9883 9884 9885 9886 9887 9889 9892 9894 9896 9897 9899 9903 9907 9909 9911 9913 9915 9918 9923 9928 9931 9934 9938 9943 9945 9948 9955 9962 9968 9973 9981 9989 9996 10002
9934 9929 9926 9923 9920 9917 9914 9909 9904 9901 9898 9894 9890 9886 9884 9883 9882 9881 9880 9878 9877 9876 9875 9875 9875 9875 9875 9875 9875 9874 9875 9877 9878 9879 9881 9884 9885 9886 9887 9890 9894 9895 9896 9898 9901 9903 9906 9910 9915 9920 9922 9926 9930 9932 9936 9942 9946 9949 9955 9965 9974 9981 9985
9929 9923 9919 9917 9914 9911 9908 9904 9899 9896 9893 9889 9885 9881 9878 9876 9875 9874 9873 9872 9870 9869 9868 9867 9867 9867 9867 9868 9868 9867 9867 9868 9869 9871 9873 9875 9875 9876 9878 9881 9883 9883 9884 9888 9890 9891 9894 9898 9903 9908 9910 9912 9916 9920 9923 9927 9929 9933 9942 9952 9958 9963 9967
9923 9918 9913 9910 9908 9905 9902 9899 9894 9890 9887 9884 9880 9877 9873 9871 9869 9867 9866 9865 9864 9863 9862 9861 9860 9859 9859 9860 9860 9860 9860 9860 9861 9862 9865 9866 9866 9867 9870 9871 9872 9873 9874 9877 9879 9881 9884 9887 9891 9895 9897 9900 9904 9908 9911 9913 9916 9922 9931 9937 9941 9947 9952
9917 9912 9907 9903 9901 9899 9896 9893 9889 9885 9881 9878 9875 9872 9868 9866 9863 9861 9860 9858 9857 9856 9855 9854 9853 9853 9852 9852 9852 9852 9853 9853 9853 9854 9856 9857 9858 9859 9861 9861 9862 9864 9865 9867 9869 9871 9874 9877 9880 9884 9886 9889 9893 9897 9900 9902 9905 9912 9920 9925 9929 9934 9939
9912 9907 9902 9897 9894 9892 9889 9886 9884 9880 9877 9873 9870 9866 9863 9860 9858 9855 9854 9852 9850 9849 9849 9848 9847 9846 9846 9845 9845 9845 9845 9846 9846 9847 9848 9849 9850 9851 9852 9852 9854 9855 9856 9858 9859 9862 9864 9867 9870 9873 9876 9879 9883 9886 9890 9892 9896 9902 9909 9913 9917 9922 9927
9907 9903 9898 9893 9889 9886 9883 9880 9877 9875 9871 9868 9865 9861 9858 9855 9852 9850 9848 9846 9844 9843 9842 9842 9841 9840 9839 9839 9838 9838 9838 9838 9839 9839 9840 9841 9842 9842 9843 9844 9846 9847 9848 9849 9851 9852 9854 9857 9860 9864 9867 9869 9872 9877 9881 9884 9887 9892 9897 9901 9904 9908 9913
9902 9898 9893 9888 9884 9880 9877 9874 9871 9868 9866 9863 9859 9856 9853 9850 9847 9844 9842 9840 9839 9837 9836 9835 9835 9834 9833 9832 9832 9831 9831 9831 9832 9832 9833 9834 9834 9835 9835 9836 9838 9839 9840 9841 9842 9844 9846 9849 9852 9855 9858 9860 9864 9869 9873 9875 9876 9879 9882 9886 9889 9893 9898
9896 9892 9888 9883 9879 9875 9872 9869 9866 9863 9860 9857 9854 9851 9848 9845 9842 9839 9837 9835 9833 9831 9830 9829 9828 9828 9827 9826 9825 9825 9824 9824 9825 9825 9826 9827 9827 9827 9828 9829 9830 9831 9832 9832 9834 9836 9838 9841 9844 9847 9850 9853 9856 9859 9860 9861 9863 9865 9869 9873 9876 9880 9884
9890 9887 9883 9878 9874 9869 9866 9863 9861 9858 9855 9852 9849 9846 9842 9839 9837 9834 9832 9829 9828 9826 9824 9823 9822 9821 9821 9820 9819 9818 9818 9817 9818 9818 9819 9820 9821 9821 9821 9821 9822 9823 9824 9825 9826 9828 9830 9833 9836 9839 9841 9844 9846 9847 9849 9850 9853 9856 9860 9863 9867 9871 9874
9884 9881 9877 9873 9869 9865 9861 9857 9855 9853 9850 9847 9844 9841 9838 9834 9832 9829 9827 9824 9822 9820 9819 9817 9816 9815 9814 9814 9813 9812 9811 9811 9811 9811 9812 9812 9814 9814 9814 9815 9815 9816 9817 9817 9819 9820 9822 9825 9828 9829 9832 9834 9836 9837 9840 9842 9845 9848 9851 9854 9858 9861 9864
9878 9875 9872 9868 9864 9860 9856 9852 9849 9847 9845 9842 9839 9836 9833 9830 9827 9824 9822 9820 9817 9815 9813 9811 9811 9809 9808 9808 9807 9806 9805 9804 9804 9804 9804 9805 9806 9807 9808 9808 9808 9809 9810 9811 9812 9813 9815 9816 9818 9821 9823 9825 9827 9829 9831 9834 9836 9838 9841 9844 9847 9850 9853
9871 9869 9866 9862 9859 9855 9852 9848 9843 9840 9838 9836 9834 9831 9829 9826 9822 9819 9817 9815 9813 9810 9808 9806 9805 9804 9803 9802 9801 9801 9799 9798 9798 9798 9798 9798 9799 9800 9801 9801 9802 9803 9803 9804 9805 9806 9807 9808 9810 9812 9815 9817 9818 9820 9822 9825 9827 9828 9831 9835 9837 9839 9842
9864 9862 9860 9857 9853 9850 9847 9843 9839 9835 9832 9830 9827 9825 9823 9820 9818 9815 9812 9810 9808 9806 9803 9801 9799 9798 9797 9797 9795 9795 9794 9793 9792 9791 9791 9791 9792 9793 9793 9794 9795 9796 9797 9797 9798 9799 9800 9801 9802 9804 9807 9809 9810 9812 9815 9817 9818 9819 9822 9826 9827 9829 9833
9858 9855 9853 9851 9848 9844 9841 9838 9835 9832 9828 9824 9821 9819 9816 9814 9812 9810 9807 9805 9803 9801 9799 9796 9794 9793 9792 9791 9790 9789 9788 9787 9787 9786 9785 9785 9785 9786 9786 9787 9788 9789 9790 9791 9792 9792 9793 9794 9795 9797 9799 9800 9802 9805 9807 9808 9809 9811 9814 9816 9818 9820 9823
9852 9849 9847 9844 9842 9839 9835 9832 9830 9827 9824 9821 9817 9814 9811 9808 9806 9803 9801 9799 9797 9796 9794 9792 9790 9788 9786 9785 9784 9783 9782 9782 9781 9780 9780 9779 9779 9780 9780 9781 9781 9782 9783 9784 9785 9786 9786 9787 9788 9789 9791 9793 9795 9797 9799 9800 9802 9803 9806 9808 9809 9811 9814
9845 9843 9841 9838 9835 9832 9830 9827 9824 9821 9819 9816 9813 9810 9807 9804 9801 9798 9796 9794 9791 9789 9788 9786 9785 9783 9781 9779 9778 9778 9777 9776 9775 9775 9775 9774 9774 9774 9774 9775 9775 9776 9776 9777 9778 9779 9779 9780 9781 9782 9783 9785 9787 9789 9791 9792 9794 9795 9798 9800 9801 9803 9805
9838 9836 9834 9832 9829 9826 9823 9821 9818 9816 9813 9811 9809 9806 9803 9800 9797 9794 9792 9790 9788 9785 9783 9781 9779 9777 9776 9774 9773 9772 9771 9770 9770 9769 9769 9769 9769 9768 9768 9769 9769 9770 9770 9770 9771 9772 9773 9773 9774 9775 9776 9777 9779 9781 9783 9784 9786 9788 9790 9792 9793 9795 9798
9830 9828 9827 9825 9823 9820 9818 9815 9812 9810 9807 9805 9803 9801 9799 9796 9793 9791 9788 9786 9784 9782 9779 9776 9774 9772 9771 9769 9768 9766 9765 9765 9764 9764 9764 9764 9763 9763 9763 9763 9763 9764 9764 9764 9765 9765 9766 9767 9767 9768 9769 9770 9772 9773 9775 9777 9778 9780 9782 9784 9785 9787 9790
9823 9821 9820 9818 9817 9815 9812 9809 9807 9804 9801 9799 9798 9796 9794 9792 9790 9787 9784 9781 9779 9778 9775 9772 9770 9768 9766 9764 9762 9761 9760 9759 9759 9758 9758 9758 9758 9758 9757 9757 9757 9758 9758 9759 9759 9759 9760 9760 9761 9762 9762 9763 9765 9766 9767 9769 9771 9772 9774 9775 9777 9779 9781